Tracking 27079 objects as of 23-Mar-2023
HD Live streaming from Space Station
objects crossing your sky now

STARLINK-3353

Track STARLINK-3353 now!
10-day predictions
STARLINK-3353 is classified as:


NORAD ID: 50807
Int'l Code: 2022-001E
Perigee: 545.8 km
Apogee: 547.9 km
Inclination: 53.2 °
Period: 95.4 minutes
Semi major axis: 6917 km
RCS: Unknown
Launch date: January 6, 2022
Source: United States (US)
Launch site: AIR FORCE EASTERN TEST RANGE (AFETR)
Your satellite tracking list
Your tracking list is empty




NASA's NSSDC Master Catalog

Two Line Element Set (TLE):
1 50807U 22001E   23081.97287512  .00002551  00000-0  17830-3 0  9995
2 50807  53.2172 339.6206 0001524  75.7128 284.4034 15.08842987 68363
Source of the keplerian elements: AFSPC